SHARC

Last updated on May 4, 2019, 12:02 a.m. UTC

1 42712U 98067LT  19123.64217769  .08981558  12375-4  84912-3 0  9997
2 42712  51.6192 152.4129 0003348 312.8737 146.7300 16.37776182112255

Satellite is not in orbit.